Regional Weather Roundup
Issued by NWS Charleston, SC

Current Version | Previous Version | Text Only | Print | Product List | Glossary On
Versions: 1 2 3 4 5 6 7 8 9 10 11 12 13 14 15 16 17 18 19 20 21 22 23 24 25 26 27 28 29 30 31 32 33 34 35 36 37 38 39 40 41 42 43 44 45 46 47 48 49 50
000 ASUS42 KCHS 201412 RWRCHS REGIONAL WEATHER ROUNDUP NATIONAL WEATHER SERVICE CHARLESTON SC 900 AM EST FRI JAN 20 2017 NOTE: "FAIR" INDICATES FEW OR NO CLOUDS BELOW 12,000 FEET WITH NO SIGNIFICANT WEATHER AND/OR OBSTRUCTIONS TO VISIBILITY. NOT ALL STATIONS ARE QUALITY CONTROLLED. USE DATA WITH CAUTION... ESPECIALLY DEWPOINT OBSERVATIONS. SCZ027-030-031-034>040-042>050-201500- ...SOUTHEAST SOUTH CAROLINA... CITY SKY/WX TMP DP RH WIND PRES REMARKS N CHARLESTON CLOUDY 63 59 87 S6 29.91R WATERFRONT PRK N/A 58 57 96 VRB2 29.90S MOUNT PLEASANT FAIR 63 61 94 CALM 29.92R JOHNS ISLAND PTSUNNY 64 63 94 S3 29.92R PINOPOLIS N/A 61 57 88 CALM 29.81S MONCKS CORNER CLOUDY 59 57 94 CALM 29.90S SUMMERVILLE CLOUDY 63 63 100 S6 29.91R BEAUFORT MCAS MOSUNNY 66 61 84 S5 29.91R BEAUFORT ARPT NOT AVBL HILTON HEAD IS SUNNY 66 66 100 S7 29.92 WALTERBORO CLOUDY 61 59 94 S6 29.91R ALLENDALE FAIR 63 59 88 S3 29.89R ...SOUTHERN MIDLANDS AND PEE DEE... CITY SKY/WX TMP DP RH WIND PRES REMARKS GEORGETOWN CLOUDY 59 57 94 CALM 29.92F KINGSTREE CLOUDY 59 54 82 SE3 29.90F ORANGEBURG PTSUNNY 60 57 89 S5 29.90R BARNWELL FAIR 63 61 94 S7 29.89S AIKEN PTSUNNY 59 57 94 CALM 29.91S MANNING CLOUDY 57 46 67 CALM 29.90S COLUMBIA MOSUNNY 59 56 89 E3 29.88S SUMTER CLOUDY 58 55 89 CALM 29.87R FLORENCE CLOUDY 58 54 86 S7 29.90S MYRTLE BEACH NOT AVBL N MYRTLE BEACH CLOUDY 61 54 77 E7 29.91S $$ GAZ063-065-086>088-099>101-113>116-118-119-134>141-150-201500- ...SOUTHEAST GEORGIA... CITY SKY/WX TMP DP RH WIND PRES REMARKS SAVANNAH ARPT MOSUNNY 64 59 83 SW5 29.91R HUNTER AAF SUNNY 66 66 99 S7 29.88R FORT STEWART CLOUDY 63 60 90 CALM 29.90R STATESBORO CLOUDY 62 32 31 S3 29.90R SYLVANIA CLOUDY N/A N/A N/A CALM 29.91R CLAXTON CLOUDY N/A N/A N/A CALM 29.91R FOG ...CSRA...CENTRAL AND FAR SOUTHEAST GEORGIA... CITY SKY/WX TMP DP RH WIND PRES REMARKS THOMSON CLOUDY 64 64 100 CALM 29.92R AUGUSTA-BUSH CLOUDY 62 58 86 S5 29.88R AUGUSTA-DANIEL CLOUDY 62 57 83 S6 29.89R SWAINSBORO CLOUDY 63 61 94 CALM 29.90S VIDALIA CLOUDY 64 64 100 S7 29.91R FOG EASTMAN CLOUDY 66 66 100 SW5 29.92R HAZLEHURST CLOUDY 67 67 100 S5 29.89S ALMA CLOUDY 67 65 93 SW10 29.91R WAYCROSS CLOUDY 67 67 100 SW6 29.92R FOG JESUP CLOUDY 64 61 88 W3 29.93R BAXLEY CLOUDY 66 66 100 SW6 29.91R BRUNSWICK SUNNY 68 64 88 SW9 29.92R SAINT SIMONS SUNNY 66 62 87 S6 29.91R $$ SCZ027-028-034-036>038-045-046-048>050-GAZ119-141-201500- ...LAKE AND SUPPLEMENTAL COASTAL OBSERVATIONS... STATION/POSITION TIME TEMP WIND PRES WAVE SWELL AIR SEA DIR/SP/G HT/PER HT/PER/DIR (UTC) (F) (DEG/KT/KT) (MB) (FT/S) (FT/S/D) WINYAH BAY 1245 55 CALM 1013.0 LAKE MURRAY 1320 58 140/ 4/ 6 1011.2 ACE BASIN NERRS 1245 59 CALM 1012.0 FORT PULASKI 1342 63 58 210/ 4/ 7 1012.7R SAPELO ISLAND 1300 62 170/ 5 1012.0 $$ ANZ835-935-AMZ111-154-330-350-352-354-370-450-454-472-201500- ...C-MAN AND BUOY OBSERVATIONS... STATION/POSITION TIME TEMP WIND PRES WAVE SWELL AIR SEA DIR/SP/G HT/PER HT/PER/DIR (UTC) (F) (DEG/KT/KT) (MB) (FT/S) (FT/S/D) BUOY 41004 1250 70 71 240/ 12/ 14 1012.9 2/ 9 2/120/ 9 BUOY 41008 1250 62 59 180/ 8/ 10 1012.3 2/10 2/ 70/10 FOLLY BEACH CMAN 1300 59 150/ 5/ 5 1013.0F CAPERS NEARSHORE 1308 57 55 140/ 4/ 6 1012.6F FRIPP NEARSHORE 1308 60 58 180/ 6/ 8 1012.2R STATION/POSITION TIME TEMP WIND PRES WAVE SWELL AIR SEA DIR/SP/G HT/PER HT/PER/DIR (UTC) (F) (DEG/KT/KT) (MB) (FT/S) (FT/S/D) 5E ST. MARYS GA 1330 63 N/A 2/11 2/ 70/11 FRYING PAN BUOY 1320 220/ 10/ 14 1013.0 BUOY 41025 1250 61 76 100/ 6/ 10 1014.8 5/12 5/ 80/12 CAPE LOOKOUT NC 1300 63 100/ 9/ 10 1013.6F BUOY 41002 1250 68 71 150/ 8/ 10 1015.1 6/12 5/ 10/12 BUOY 41010 NOT AVBL ST AUGUSTINE FL 1300 64 62 200/ 9/ 11 1014.2F $$

USA.gov is the U.S. government's official web portal to all federal, state and local government web resources and services.